This is the latest recevied weather packets stored in our database for station/object K6CQU-13. If no packets are shown the sender has not sent any weather packets the latest 10 day(s).
| Time | Temp. | Humidity | Pressure | Rain* | Wind** | Luminosity | Snow |
|---|---|---|---|---|---|---|---|
| 1777741517 | 17.78° C | 66% | 1012.6 hPa | 0 mm | - | 258 W/m² | - |
| 1777741217 | 18.33° C | 66% | 1012.5 hPa | 0 mm | - | 410 W/m² | - |
| 1777740917 | 17.78° C | 67% | 1012.6 hPa | 0 mm | - | 520 W/m² | - |
| 1777740617 | 17.78° C | 70% | 1012.7 hPa | 0 mm | - | 607 W/m² | - |
| 1777740317 | 17.22° C | 70% | 1012.7 hPa | 0 mm | - | 514 W/m² | - |
| 1777740017 | 17.22° C | 71% | 1012.6 hPa | 0 mm | - | 340 W/m² | - |
| 1777739717 | 17.22° C | 71% | 1012.6 hPa | 0 mm | - | 204 W/m² | - |
| 1777739417 | 17.22° C | 71% | 1012.6 hPa | 0 mm | - | 218 W/m² | - |
| 1777739117 | 17.22° C | 72% | 1012.5 hPa | 0 mm | - | 225 W/m² | - |
| 1777738817 | 17.22° C | 72% | 1012.4 hPa | 0 mm | - | 199 W/m² | - |
| 1777738517 | 16.67° C | 72% | 1012.4 hPa | 0 mm | - | 197 W/m² | - |
| 1777738217 | 16.67° C | 72% | 1012.3 hPa | 0 mm | - | 295 W/m² | - |
| 1777737917 | 16.67° C | 73% | 1012.4 hPa | 0 mm | - | 300 W/m² | - |
| 1777737617 | 16.67° C | 74% | 1012.3 hPa | 0 mm | - | 357 W/m² | - |
| 1777737317 | 16.67° C | 73% | 1012.3 hPa | 0 mm | - | 345 W/m² | - |
| 1777737017 | 16.67° C | 74% | 1012.3 hPa | 0 mm | - | 373 W/m² | - |
| 1777736717 | 16.11° C | 76% | 1012.2 hPa | 0 mm | - | 301 W/m² | - |
| 1777736416 | 16.11° C | 77% | 1012.2 hPa | 0 mm | - | 277 W/m² | - |
| 1777736117 | 16.11° C | 77% | 1012.1 hPa | 0 mm | - | 260 W/m² | - |
| 1777735816 | 15.56° C | 78% | 1012.1 hPa | 0 mm | - | 242 W/m² | - |
| 1777735517 | 15.56° C | 79% | 1012.1 hPa | 0 mm | - | 227 W/m² | - |
| 1777735217 | 15° C | 80% | 1012 hPa | 0 mm | - | 218 W/m² | - |
| 1777734916 | 15° C | 80% | 1012 hPa | 0 mm | - | 226 W/m² | - |
| 1777734617 | 15° C | 80% | 1011.9 hPa | 0 mm | - | 199 W/m² | - |
| 1777734316 | 15° C | 81% | 1011.9 hPa | 0 mm | - | 182 W/m² | - |
* Rain latest hour (hover to see other rain measurements)
** Current wind speed in m/s (hover to see current wind gust speed)